[[{"header":{"parameterUnit":"m.s-1","parameterCategory":1,"la1":30.2991,"la2":30.254,"lo1":-89.0895,"lo2":-89.0444,"dy":0.0017,"dx":0.0017,"nx":28,"ny":28,"refTime":"2024-04-19T03:00:00:Z","depth":0,"parameterNumber":2,"parameterNumberName":"U-component_of_WINDS"},"data":[0,0,0,0,0,0,0,0,0,0,0,0,0,0,0,0,0,0,0,0,0,0,0,0,0,0,0,0,0,0,0,0,0,0,0,0,0,0,0,0,0,0,0,0,0,0,0,0,0,0,0,0,0,0,0,0,0,0,0.222,0.2221,0,0.2305,0.2306,0.2307,0.2345,0.2345,0.2345,0.2345,0.2427,0.2429,0.2431,0,0,0,0,0,0,0,0,0,0,0,0,0,0.2084,0.2087,0.222,0.2221,0.2222,0.2305,0.2306,0.2307,0.2345,0.2345,0.2345,0.2345,0.2426,0.2429,0.2431,0,0,0,0,0,0,0,0,0,0,0,0,0,0.2153,0.2087,0.222,0.2251,0.2255,0.2304,0.2306,0.2307,0.2345,0.2345,0.2345,0.2345,0.2425,0.2428,0.2432,0.2455,0,0,0.2442,0.2444,0,0,0,0,0,0,0,0,0.2149,0.2158,0.2245,0.2249,0.2253,0.2314,0.2288,0.2357,0.2345,0.2311,0.2345,0.2345,0.2389,0.2395,0.2411,0.2459,0.2462,0.2442,0.2444,0.2446,0.2447,0,0,0,0,0,0,0,0.2145,0.2155,0.2253,0.2247,0.2251,0.2259,0.2269,0.2301,0.2349,0.2314,0.2317,0.2326,0.2391,0.2408,0.2414,0.2463,0.2442,0.2445,0.2447,0.2449,0.2532,0.2532,0,0,0,0,0,0,0.2135,0.2151,0.2251,0.2256,0.22,0.2261,0.2272,0.2295,0.2349,0.2357,0.2326,0.2328,0.2402,0.241,0.2417,0.2447,0.2446,0.2449,0.2451,0.2531,0.2532,0.2532,0,0,0,0,0,0,0.2132,0.2144,0.2247,0.2204,0.2218,0.2264,0.2289,0.2296,0.2314,0.2359,0.2367,0.2335,0.2403,0.2412,0.2445,0.245,0.2451,0.2454,0.2531,0.2531,0.2532,0.2507,0,0,0,0,0,0,0.2128,0.2143,0.2154,0.2204,0.222,0.2276,0.2289,0.2298,0.232,0.2323,0.2369,0.2377,0.2403,0.244,0.2448,0.2455,0.2456,0.2531,0.2531,0.2532,0.2507,0.2506,0.2505,0,0,0,0,0,0.2123,0.2143,0.2154,0.2166,0.2235,0.2276,0.2285,0.2317,0.232,0.233,0.2359,0.2376,0.2448,0.2443,0.2453,0.246,0.2531,0.2531,0.2532,0.2508,0.2506,0.2505,0,0,0,0,0,0,0.209,0.215,0.2163,0.22,0.2233,0.2283,0.2297,0.2314,0.2346,0.2347,0.2382,0.2392,0.2422,0.2444,0.2438,0.2484,0.249,0.2493,0.2469,0.2468,0.2467,0.2461,0.2459,0,0,0,0,0,0.2087,0.2118,0.2168,0.2195,0.2211,0.2251,0.227,0.2291,0.2326,0.234,0.2371,0.2403,0.2432,0.2451,0.2481,0.251,0.252,0.252,0.2519,0.2517,0.2519,0.2534,0.2534,0.2533,0.2533,0.2533,0,0,0.2081,0.2118,0.2135,0.2189,0.2217,0.2246,0.2262,0.2292,0.2313,0.2344,0.2377,0.2401,0.2438,0.2469,0.2484,0.2489,0.2521,0.2518,0.2517,0.2519,0.2535,0.2535,0.2535,0.2533,0.2533,0.2533,0,0,0.2085,0.2117,0.2142,0.217,0.2213,0.2239,0.2245,0.2292,0.2309,0.2344,0.2366,0.239,0.2441,0.2467,0.2486,0.2497,0.2513,0.2506,0.25,0.2514,0.2515,0.2515,0.2518,0.2519,0.2507,0.2507,0.2507,0,0.2072,0.2119,0.2153,0.2182,0.2204,0.2234,0.2258,0.2283,0.2332,0.2346,0.235,0.2414,0.2441,0.2477,0.248,0.2495,0.2501,0.2501,0.2512,0.2513,0.2513,0.2517,0.2518,0.2506,0.2506,0.2506,0.2506,0,0.21,0.2131,0.2146,0.2195,0.2219,0.2245,0.2281,0.23,0.2318,0.2343,0.2376,0.241,0.2447,0.2456,0.2474,0.2495,0.2496,0.2506,0.2513,0.2512,0.2515,0.2517,0.2504,0.2505,0.2505,0.2505,0,0,0.2087,0.2153,0.2158,0.218,0.2228,0.2252,0.2278,0.2315,0.2331,0.2363,0.2385,0.2426,0.2435,0.2457,0.2477,0.249,0.2495,0.2498,0.2499,0.2496,0.2518,0.251,0.2511,0.2505,0.2505,0.2506,0.2514,0,0.2097,0.2149,0.2179,0.2217,0.2246,0.2273,0.2296,0.2326,0.2349,0.2375,0.2399,0.2428,0.2438,0.2451,0.2465,0.2491,0.25,0.2491,0.2524,0.2525,0.2514,0.2513,0.2506,0.2513,0.2516,0.2516,0.2516,0,0.2117,0.215,0.2191,0.2235,0.2248,0.2268,0.2304,0.2328,0.2362,0.2378,0.2402,0.2422,0.2448,0.2453,0.2488,0.2482,0.2497,0.2511,0.2512,0.2517,0.2521,0.2517,0.2516,0.2516,0.2519,0.2519,0.2519,0,0.2103,0.2157,0.2189,0.2206,0.2258,0.2272,0.2293,0.2327,0.2347,0.2377,0.239,0.2422,0.2439,0.2462,0.2489,0.249,0.2522,0.2529,0.2534,0.2533,0.254,0.2539,0.2541,0.2549,0.2549,0.2549,0.2549,0,0.2112,0.2136,0.2183,0.2203,0.2229,0.2262,0.2287,0.231,0.234,0.2363,0.2387,0.2407,0.2442,0.2466,0.2487,0.2512,0.252,0.2532,0.2537,0.253,0.2528,0.2541,0.2541,0.255,0.255,0.255,0.2549,0,0.2101,0.2134,0.217,0.2216,0.2228,0.2245,0.2283,0.2302,0.2325,0.2354,0.2362,0.2398,0.2427,0.2457,0.2495,0.2509,0.2534,0.2542,0.2523,0.2526,0.253,0.2529,0.2539,0.2542,0.2548,0.2548,0.2548,0,0.2105,0.2124,0.2172,0.219,0.2211,0.2239,0.226,0.2292,0.2311,0.235,0.2363,0.2394,0.2421,0.2465,0.2494,0.2523,0.2531,0.2533,0.2536,0.2527,0.2531,0.2529,0.2531,0.2532,0.2531,0.2531,0.2531,0,0.2107,0.2122,0.2152,0.2187,0.2211,0.2239,0.2268,0.228,0.2317,0.2338,0.2368,0.2389,0.2428,0.2458,0.249,0.251,0.2526,0.253,0.2532,0.2525,0.2514,0.2519,0.252,0.253,0.253,0.253,0.253,0.253,0.2104,0.2122,0.2158,0.219,0.2215,0.2241,0.226,0.2286,0.2313,0.2349,0.2365,0.2396,0.2426,0.2472,0.2491,0.2513,0.2518,0.2522,0.2523,0.2523,0.2521,0.251,0.2519,0.2519,0.2519,0.2519,0.2519,0,0.2107,0.2132,0.2161,0.2201,0.2225,0.2239,0.2271,0.229,0.2317,0.2345,0.2371,0.2404,0.2433,0.2463,0.2493,0.2505,0.2512,0.2511,0.2511,0.2515,0.2516,0.2511,0.2504,0.2504,0.2504,0.2504,0.2504,0.2504,0.2112,0.2143,0.2162,0.2204,0.2228,0.2259,0.2276,0.2299,0.2322,0.2359,0.2384,0.2404,0.2432,0.2463,0.2489,0.2497,0.2507,0.2503,0.2513,0.2514,0.2515,0.2516,0.2511,0.2505,0.2505,0.251,0.251,0.251]},{"header":{"parameterUnit":"m.s-1","parameterCategory":1,"la1":30.2991,"la2":30.254,"lo1":-89.0895,"lo2":-89.0444,"dy":0.0017,"dx":0.0017,"nx":28,"ny":28,"refTime":"2024-04-19T03:00:00:Z","depth":0,"parameterNumber":3,"parameterNumberName":"V-component_of_WINDS"},"data":[0,0,0,0,0,0,0,0,0,0,0,0,0,0,0,0,0,0,0,0,0,0,0,0,0,0,0,0,0,0,0,0,0,0,0,0,0,0,0,0,0,0,0,0,0,0,0,0,0,0,0,0,0,0,0,0,0,0,2.805,2.805,0,2.8011,2.801,2.801,2.7998,2.7998,2.7998,2.7998,2.7954,2.7953,2.7952,0,0,0,0,0,0,0,0,0,0,0,0,0,2.8114,2.8112,2.805,2.805,2.8049,2.8011,2.801,2.801,2.7998,2.7998,2.7998,2.7999,2.7955,2.7953,2.7952,0,0,0,0,0,0,0,0,0,0,0,0,0,2.8081,2.8112,2.8051,2.8039,2.8037,2.8011,2.801,2.801,2.7998,2.7998,2.7998,2.7999,2.7955,2.7953,2.7951,2.7933,0,0,2.7945,2.7944,0,0,0,0,0,0,0,0,2.8083,2.8079,2.8041,2.804,2.8038,2.801,2.8016,2.7984,2.7998,2.8013,2.7998,2.7999,2.7972,2.7969,2.7961,2.7931,2.7929,2.7945,2.7944,2.7943,2.7942,0,0,0,0,0,0,0,2.8085,2.808,2.8035,2.8041,2.8039,2.8035,2.8031,2.801,2.7991,2.8011,2.801,2.8006,2.7971,2.7963,2.796,2.7928,2.7945,2.7943,2.7942,2.7941,2.7882,2.7882,0,0,0,0,0,0,2.809,2.8082,2.8036,2.8034,2.8062,2.8034,2.8029,2.8018,2.7991,2.7988,2.8006,2.8006,2.7966,2.7962,2.7958,2.7935,2.7943,2.7941,2.794,2.7882,2.7882,2.7882,0,0,0,0,0,0,2.8091,2.8086,2.8038,2.8058,2.8051,2.8032,2.8021,2.8017,2.8009,2.7987,2.7984,2.8001,2.7966,2.7961,2.794,2.7933,2.794,2.7938,2.7883,2.7882,2.7882,2.7889,0,0,0,0,0,0,2.8093,2.8086,2.8079,2.8058,2.805,2.802,2.802,2.8016,2.8006,2.8005,2.7981,2.7978,2.7966,2.7943,2.7938,2.7931,2.7937,2.7883,2.7883,2.7882,2.7889,2.7889,2.7888,0,0,0,0,0,2.8095,2.8082,2.8079,2.8074,2.8041,2.802,2.8016,2.8004,2.8005,2.7998,2.7984,2.7978,2.7935,2.7941,2.7935,2.7927,2.7884,2.7883,2.7882,2.7889,2.7889,2.7888,0,0,0,0,0,0,2.8101,2.8079,2.8075,2.8054,2.804,2.8018,2.8008,2.8003,2.7986,2.7986,2.7971,2.7966,2.7946,2.7934,2.7941,2.7908,2.7909,2.7907,2.7917,2.7916,2.7916,2.7918,2.7935,0,0,0,0,0,2.8101,2.8086,2.8067,2.805,2.8043,2.8027,2.8017,2.801,2.7993,2.7986,2.7971,2.7954,2.7937,2.7926,2.7909,2.7888,2.7883,2.788,2.7879,2.7879,2.7877,2.7867,2.7865,2.7879,2.7879,2.7879,0,0,2.8098,2.8084,2.8075,2.8051,2.8038,2.8023,2.8022,2.8005,2.7994,2.7983,2.7963,2.7951,2.7932,2.7911,2.7901,2.7901,2.7873,2.7878,2.7878,2.7876,2.7866,2.7864,2.7863,2.7879,2.7879,2.7879,0,0,2.8086,2.8073,2.8059,2.8047,2.8029,2.8019,2.8016,2.7996,2.7988,2.7968,2.796,2.7946,2.7916,2.7903,2.7893,2.7878,2.7872,2.7873,2.7871,2.786,2.7859,2.7858,2.7854,2.7852,2.7872,2.7872,2.7872,0,2.8084,2.8062,2.8052,2.8037,2.8026,2.8018,2.8004,2.7992,2.7969,2.7962,2.7962,2.7926,2.7912,2.7889,2.7886,2.7878,2.7873,2.7875,2.7861,2.7859,2.7858,2.7854,2.7852,2.7872,2.7872,2.7872,2.7872,0,2.8062,2.8047,2.8037,2.8017,2.8006,2.7991,2.7978,2.7968,2.7962,2.7952,2.7932,2.7915,2.7895,2.7889,2.7882,2.7865,2.7866,2.7864,2.7864,2.7857,2.7853,2.7851,2.7872,2.7872,2.7872,2.7872,0,0,2.805,2.8027,2.8023,2.8015,2.7995,2.7983,2.7968,2.795,2.7942,2.7927,2.7914,2.789,2.7889,2.7877,2.7869,2.786,2.7851,2.7859,2.7858,2.7858,2.7832,2.7834,2.7832,2.7847,2.7847,2.7846,2.7834,0,2.8036,2.801,2.8001,2.7979,2.7966,2.7959,2.7946,2.7932,2.7923,2.791,2.7899,2.7883,2.7882,2.7875,2.7866,2.7854,2.7845,2.7855,2.7834,2.7834,2.7839,2.7829,2.783,2.7819,2.7832,2.7831,2.7831,0,2.8014,2.8001,2.7979,2.7963,2.7957,2.7945,2.7929,2.7917,2.7902,2.7896,2.7884,2.7877,2.7861,2.7863,2.7841,2.7848,2.784,2.7833,2.7832,2.7829,2.7832,2.7826,2.7815,2.7813,2.7828,2.7828,2.7829,0,2.8009,2.7985,2.7969,2.7962,2.7943,2.7935,2.7927,2.7912,2.7903,2.7888,2.7882,2.7866,2.7857,2.7844,2.7833,2.7836,2.7812,2.7813,2.7807,2.7807,2.7801,2.7802,2.7789,2.7796,2.7796,2.7796,2.7796,0,2.7993,2.798,2.7967,2.7957,2.7942,2.7932,2.7917,2.7908,2.7896,2.7884,2.7877,2.7865,2.7851,2.7838,2.783,2.7813,2.7809,2.7804,2.7801,2.7804,2.7805,2.7798,2.7798,2.7796,2.7796,2.7796,2.7796,0,2.7984,2.7975,2.7957,2.7941,2.7937,2.7927,2.7913,2.7903,2.7894,2.7879,2.7875,2.7861,2.7846,2.7834,2.7813,2.7807,2.779,2.7788,2.7796,2.7794,2.7789,2.7789,2.777,2.7767,2.7777,2.7777,2.7777,0,2.7974,2.7964,2.7948,2.7941,2.7933,2.792,2.7911,2.7902,2.7892,2.7876,2.7868,2.7852,2.7839,2.7815,2.7803,2.7787,2.7784,2.7779,2.7782,2.7785,2.7784,2.7785,2.7784,2.7778,2.7778,2.7778,2.7778,0,2.7959,2.7955,2.7943,2.793,2.792,2.7909,2.7897,2.7891,2.7879,2.7869,2.7854,2.7845,2.7825,2.781,2.7793,2.7784,2.7779,2.7777,2.7775,2.7777,2.7783,2.778,2.7795,2.7777,2.7778,2.7778,2.7778,2.7778,2.7949,2.794,2.7928,2.7916,2.7907,2.7897,2.7887,2.7878,2.7866,2.785,2.7845,2.783,2.7817,2.7795,2.7785,2.7773,2.7773,2.7769,2.7768,2.7768,2.7768,2.7785,2.777,2.777,2.777,2.777,2.777,0,2.7933,2.7926,2.7914,2.79,2.789,2.7888,2.7876,2.7867,2.7854,2.7843,2.7831,2.7815,2.78,2.7788,2.7773,2.7766,2.7763,2.7762,2.7762,2.7761,2.7769,2.7773,2.7765,2.7765,2.7765,2.7765,2.7765,2.7765,2.7924,2.7909,2.7905,2.7886,2.7879,2.7865,2.7858,2.7849,2.784,2.7822,2.7811,2.7804,2.7792,2.7777,2.7764,2.7761,2.7755,2.7755,2.7751,2.7759,2.776,2.776,2.7764,2.7754,2.7754,2.7744,2.7744,2.7744]}]]